TimeCDT,TemperatureF,Dew PointF,Humidity,Sea Level PressureIn,VisibilityMPH,Wind Direction,Wind SpeedMPH,Gust SpeedMPH,PrecipitationIn,Events,Conditions,WindDirDegrees,DateUTC
12:13 AM,35.6,26.6,70,30.14,10.0,West,11.5,-,N/A,,Overcast,280,2012-10-06 05:13:00
12:33 AM,35.6,26.6,70,30.14,10.0,West,10.4,16.1,N/A,,Overcast,280,2012-10-06 05:33:00
12:53 AM,35.6,26.6,70,30.14,10.0,West,11.5,17.3,N/A,,Unknown,280,2012-10-06 05:53:00
1:13 AM,35.6,26.6,70,30.14,10.0,WNW,10.4,16.1,N/A,,Unknown,290,2012-10-06 06:13:00
1:33 AM,35.6,26.6,70,30.14,10.0,West,9.2,-,N/A,,Unknown,280,2012-10-06 06:33:00
1:53 AM,33.8,26.6,75,30.14,10.0,WNW,8.1,-,N/A,,Unknown,290,2012-10-06 06:53:00
2:13 AM,33.8,28.4,81,30.15,10.0,WNW,8.1,-,N/A,,Unknown,290,2012-10-06 07:13:00
2:33 AM,35.6,28.4,75,30.15,10.0,WNW,11.5,-,N/A,,Unknown,290,2012-10-06 07:33:00
2:53 AM,35.6,28.4,75,30.16,10.0,WNW,10.4,18.4,N/A,,Unknown,300,2012-10-06 07:53:00
3:13 AM,33.8,28.4,81,30.16,10.0,WNW,8.1,-,N/A,,Unknown,300,2012-10-06 08:13:00
3:33 AM,35.6,28.4,75,30.15,10.0,WNW,5.8,-,N/A,,Unknown,300,2012-10-06 08:33:00
3:53 AM,35.6,28.4,75,30.16,10.0,WNW,10.4,16.1,N/A,,Unknown,300,2012-10-06 08:53:00
4:13 AM,33.8,28.4,81,30.16,10.0,NW,6.9,-,N/A,,Unknown,310,2012-10-06 09:13:00
4:33 AM,33.8,28.4,81,30.17,10.0,NNW,6.9,-,N/A,,Unknown,330,2012-10-06 09:33:00
4:53 AM,33.8,28.4,81,30.17,10.0,WNW,8.1,-,N/A,,Overcast,300,2012-10-06 09:53:00
5:13 AM,32.0,28.4,87,30.18,10.0,WNW,6.9,-,N/A,,Unknown,300,2012-10-06 10:13:00
5:33 AM,30.2,28.4,93,30.18,10.0,WNW,5.8,-,N/A,,Unknown,300,2012-10-06 10:33:00
5:53 AM,30.2,28.4,93,30.19,10.0,NW,5.8,-,N/A,,Unknown,310,2012-10-06 10:53:00
6:13 AM,30.2,26.6,86,30.19,10.0,WNW,4.6,-,N/A,,Unknown,300,2012-10-06 11:13:00
6:33 AM,28.4,26.6,93,30.20,10.0,NW,4.6,-,N/A,,Scattered Clouds,310,2012-10-06 11:33:00
6:53 AM,28.4,26.6,93,30.21,10.0,NNW,4.6,-,N/A,,Scattered Clouds,340,2012-10-06 11:53:00
7:13 AM,28.4,26.6,93,30.22,10.0,NW,4.6,-,N/A,,Mostly Cloudy,310,2012-10-06 12:13:00
7:33 AM,30.2,28.4,93,30.22,3.0,NW,5.8,-,N/A,Snow,Light Snow,320,2012-10-06 12:33:00
7:53 AM,30.2,26.6,86,30.23,7.0,NNW,5.8,-,N/A,,Unknown,330,2012-10-06 12:53:00
8:33 AM,32.0,28.4,87,30.24,10.0,NW,3.5,-,N/A,,Unknown,310,2012-10-06 13:33:00
9:13 AM,33.8,28.4,81,30.26,10.0,WNW,4.6,-,N/A,,Unknown,290,2012-10-06 14:13:00
9:32 AM,35.6,28.4,75,30.26,10.0,WNW,6.9,-,N/A,,Overcast,300,2012-10-06 14:32:00
9:53 AM,35.6,26.6,70,30.27,10.0,NW,8.1,-,N/A,,Overcast,310,2012-10-06 14:53:00
10:13 AM,37.4,26.6,65,30.27,10.0,NW,5.8,-,N/A,,Overcast,310,2012-10-06 15:13:00
10:32 AM,37.4,26.6,65,30.28,10.0,WNW,8.1,-,N/A,,Unknown,300,2012-10-06 15:32:00
10:53 AM,37.4,24.8,60,30.28,10.0,WNW,9.2,-,N/A,,Overcast,300,2012-10-06 15:53:00
11:13 AM,39.2,24.8,56,30.28,10.0,WNW,8.1,-,N/A,,Overcast,300,2012-10-06 16:13:00
11:32 AM,39.2,23.0,52,30.28,10.0,NW,11.5,-,N/A,,Unknown,310,2012-10-06 16:32:00
11:53 AM,39.2,21.2,49,30.28,10.0,NNW,9.2,-,N/A,,Unknown,330,2012-10-06 16:53:00
12:13 PM,41.0,21.2,45,30.27,10.0,WNW,12.7,16.1,N/A,,Unknown,300,2012-10-06 17:13:00
12:33 PM,41.0,21.2,45,30.27,10.0,NW,11.5,19.6,N/A,,Overcast,320,2012-10-06 17:33:00
12:53 PM,41.0,21.2,45,30.27,10.0,NW,9.2,23.0,N/A,,Unknown,310,2012-10-06 17:53:00
1:13 PM,42.8,21.2,42,30.26,10.0,NNW,9.2,-,N/A,,Unknown,330,2012-10-06 18:13:00
1:33 PM,42.8,21.2,42,30.26,10.0,NW,11.5,18.4,N/A,,Overcast,320,2012-10-06 18:33:00
1:53 PM,42.8,21.2,42,30.26,10.0,NNW,9.2,-,N/A,,Overcast,340,2012-10-06 18:53:00
2:13 PM,42.8,19.4,39,30.25,10.0,North,9.2,-,N/A,,Overcast,350,2012-10-06 19:13:00
2:33 PM,42.8,19.4,39,30.25,10.0,NW,9.2,-,N/A,,Unknown,320,2012-10-06 19:33:00
2:53 PM,42.8,21.2,42,30.24,10.0,NW,8.1,-,N/A,,Unknown,310,2012-10-06 19:53:00
3:13 PM,42.8,19.4,39,30.24,10.0,North,9.2,16.1,N/A,,Unknown,350,2012-10-06 20:13:00
3:33 PM,44.6,19.4,37,30.24,10.0,North,8.1,-,N/A,,Unknown,350,2012-10-06 20:33:00
3:53 PM,42.8,19.4,39,30.23,10.0,NNW,9.2,-,N/A,,Unknown,330,2012-10-06 20:53:00
4:13 PM,44.6,21.2,39,30.23,10.0,North,5.8,-,N/A,,Unknown,360,2012-10-06 21:13:00
4:33 PM,42.8,19.4,39,30.22,10.0,North,8.1,-,N/A,,Unknown,360,2012-10-06 21:33:00
4:53 PM,42.8,19.4,39,30.22,10.0,North,6.9,-,N/A,,Unknown,10,2012-10-06 21:53:00
5:13 PM,42.8,19.4,39,30.22,10.0,NW,6.9,-,N/A,,Unknown,320,2012-10-06 22:13:00
5:33 PM,42.8,19.4,39,30.22,10.0,NNW,9.2,-,N/A,,Unknown,340,2012-10-06 22:33:00
5:53 PM,42.8,19.4,39,30.22,10.0,NW,5.8,-,N/A,,Unknown,310,2012-10-06 22:53:00
6:13 PM,42.8,21.2,42,30.22,10.0,NW,5.8,-,N/A,,Overcast,310,2012-10-06 23:13:00
6:33 PM,42.8,21.2,42,30.23,10.0,WNW,4.6,-,N/A,,Overcast,300,2012-10-06 23:33:00
6:53 PM,41.0,21.2,45,30.23,10.0,WNW,4.6,-,N/A,,Overcast,290,2012-10-06 23:53:00
7:12 PM,39.2,21.2,49,30.23,10.0,West,4.6,-,N/A,,Unknown,270,2012-10-07 00:12:00
7:33 PM,39.2,23.0,52,30.23,10.0,West,3.5,-,N/A,,Unknown,260,2012-10-07 00:33:00
7:53 PM,39.2,23.0,52,30.23,10.0,West,3.5,-,N/A,,Unknown,260,2012-10-07 00:53:00
8:13 PM,39.2,23.0,52,30.23,10.0,West,4.6,-,N/A,,Unknown,270,2012-10-07 01:13:00
8:33 PM,39.2,23.0,52,30.23,10.0,WSW,4.6,-,N/A,,Unknown,250,2012-10-07 01:33:00
8:53 PM,37.4,21.2,52,30.23,10.0,West,4.6,-,N/A,,Mostly Cloudy,260,2012-10-07 01:53:00
9:13 PM,37.4,21.2,52,30.23,10.0,West,4.6,-,N/A,,Unknown,260,2012-10-07 02:13:00
9:33 PM,35.6,21.2,56,30.23,10.0,Calm,Calm,-,N/A,,Unknown,0,2012-10-07 02:33:00
9:53 PM,33.8,21.2,60,30.23,10.0,Calm,Calm,-,N/A,,Unknown,0,2012-10-07 02:53:00
10:13 PM,32.0,21.2,64,30.23,10.0,Calm,Calm,-,N/A,,Unknown,0,2012-10-07 03:13:00
10:33 PM,30.2,21.2,69,30.23,10.0,Calm,Calm,-,N/A,,Unknown,0,2012-10-07 03:33:00
10:53 PM,28.4,21.2,74,30.23,10.0,Calm,Calm,-,N/A,,Unknown,0,2012-10-07 03:53:00
11:13 PM,26.6,19.4,74,30.22,10.0,Calm,Calm,-,N/A,,Unknown,0,2012-10-07 04:13:00
11:33 PM,26.6,21.2,80,30.22,10.0,Calm,Calm,-,N/A,,Unknown,0,2012-10-07 04:33:00
11:52 PM,26.6,19.4,74,30.21,10.0,Calm,Calm,-,N/A,,Unknown,0,2012-10-07 04:52:00